[[[{"header":{"parameterUnit":"kt","parameterCategory":2,"dx":1,"dy":1,"la1":30.253999710083008,"la2":30.299108505249023,"lo1":-89.0895004272461,"lo2":-89.04439544677734,"nx":28,"ny":28,"refTime":"2022-10-19T21:00:00:Z","depth":0,"parameterNumber":1,"parameterNumberName":"U-component_of_WINDS"},"data":[2.2104,2.2071,2.209,2.206,2.2073,2.2056,2.2056,2.2058,2.2064,2.2046,2.2038,2.2054,2.2068,2.2063,2.2056,2.2063,2.2057,2.2031,2.2043,2.2146,2.2161,2.2175,2.2184,2.203,2.203,2.1933,2.1932,2.1932,2.2174,2.2186,2.2177,2.2181,2.2173,2.221,2.2216,2.2207,2.219,2.2199,2.2193,2.2178,2.2169,2.2193,2.2187,2.217,2.2187,2.2167,2.2167,2.2168,2.2279,2.2288,2.2154,2.2154,2.2154,2.2154,2.2154,2.2154,2.2308,2.2287,2.2302,2.2292,2.23,2.2302,2.2286,2.2307,2.2298,2.2295,2.2321,2.2303,2.2315,2.2318,2.2324,2.231,2.2335,2.2319,2.2315,2.2309,2.23,2.2431,2.231,2.2311,2.2311,2.2312,2.2312,0,2.2411,2.2428,2.2422,2.242,2.2414,2.2415,2.242,2.241,2.2456,2.2446,2.2434,2.2431,2.2423,2.2414,2.2413,2.2423,2.2459,2.2467,2.2455,2.244,2.2426,2.243,2.2607,2.2469,2.2471,2.2472,2.2473,2.2473,2.2544,2.2519,2.2545,2.2537,2.2545,2.2532,2.2528,2.2571,2.2565,2.2576,2.2556,2.2548,2.2543,2.2521,2.2545,2.2539,2.2556,2.2501,2.2556,2.2543,2.2552,2.2552,2.2548,2.2488,2.2487,2.2485,2.2484,0,2.2616,2.265,2.2618,2.2646,2.2653,2.2624,2.2648,2.263,2.2653,2.2631,2.2628,2.2663,2.2651,2.2685,2.2678,2.2696,2.2646,2.2665,2.2641,2.2646,2.2597,2.26,2.2441,2.2421,2.2584,2.2583,2.2582,0,2.2742,2.2708,2.276,2.274,2.2703,2.2747,2.2709,2.2725,2.2738,2.2721,2.2769,2.2752,2.2799,2.2787,2.2813,2.2779,2.2779,2.2789,2.2796,2.2783,2.2781,2.2778,2.2784,2.2817,2.2818,2.2818,2.2819,0,2.285,2.2839,2.2807,2.281,2.2837,2.2821,2.2831,2.2846,2.2842,2.2844,2.2841,2.2839,2.2837,2.2835,2.2868,2.2904,2.2829,2.2884,2.2839,2.2838,2.2818,2.2819,2.2671,2.282,2.282,2.282,2.2821,0,2.2956,2.2957,2.2906,2.293,2.2925,2.2905,2.2906,2.2896,2.2908,2.2924,2.2925,2.2961,2.2937,2.2989,2.2955,2.2991,2.2986,2.2995,2.2992,2.2989,2.3046,2.2955,2.2814,2.2799,2.299,2.2991,2.2993,0,2.3068,2.3027,2.3065,2.3016,2.3002,2.3057,2.3035,2.3044,2.3064,2.3054,2.3075,2.3064,2.311,2.3111,2.309,2.3111,2.3064,2.3119,2.31,2.3099,2.3092,2.2964,2.2933,2.2842,2.3011,2.3009,2.3008,0,2.316,2.3195,2.3183,2.3188,2.321,2.3198,2.3173,2.3172,2.3163,2.317,2.3148,2.3135,2.3168,2.317,2.3199,2.3175,2.3097,2.3215,2.3216,2.319,2.3025,2.2995,2.2979,2.3122,2.312,2.3118,2.3023,0,2.3307,2.3292,2.3265,2.3275,2.3272,2.3245,2.3283,2.3275,2.3303,2.3324,2.3295,2.3313,2.3311,2.3305,2.3333,2.3268,2.3284,2.332,2.3372,2.3288,2.3257,2.3245,2.3414,2.3416,2.3418,2.3419,0,0,2.3405,2.3385,2.3428,2.3406,2.3406,2.3464,2.3431,2.3438,2.345,2.3448,2.3478,2.346,2.3473,2.3433,2.341,2.3411,2.3402,2.343,2.3328,2.3318,2.3309,2.3275,2.3262,2.3421,2.3422,2.3423,2.3423,0,2.3466,2.3481,2.3449,2.3458,2.3474,2.3498,2.3491,2.3516,2.3528,2.3501,2.3548,2.3536,2.3521,2.3528,2.3529,2.3436,2.3471,2.3434,2.337,2.3342,2.333,2.3319,2.3283,2.327,2.3427,2.3426,2.3426,0,2.3561,2.3581,2.357,2.3575,2.3586,2.357,2.3634,2.3616,2.3604,2.3668,2.364,2.3655,2.3668,2.3627,2.361,2.3636,2.3532,2.3573,2.3565,2.3563,2.3538,2.3523,2.351,2.3682,2.3683,2.3683,0,0,2.3609,2.3596,2.363,2.3591,2.3594,2.3631,2.3627,2.3656,2.3667,2.3671,2.3691,2.37,2.3692,2.3685,2.368,2.363,2.3635,2.3603,2.3591,2.3581,2.3574,2.3546,2.3531,2.3686,2.3686,2.3686,0,0,2.3632,2.367,2.3697,2.3657,2.3666,2.3696,2.367,2.3704,2.3704,2.3711,2.3757,2.3762,2.3724,2.3737,2.377,2.3698,2.3749,2.3742,2.3691,2.3676,2.3665,2.3661,2.3836,0,0,0,0,0,2.3714,2.3665,2.369,2.3689,2.3695,2.3683,2.3684,2.3722,2.3756,2.3735,2.3757,2.3796,2.3764,2.3794,2.3792,2.3754,2.3722,2.3715,2.3709,2.3632,2.3616,2.3603,0,0,0,0,0,0,2.3714,2.3712,2.3691,2.3719,2.3721,2.3685,2.3752,2.3761,2.376,2.3768,2.379,2.3797,2.3828,2.3798,2.3795,2.3758,2.3837,2.3719,2.3714,2.3709,2.3627,2.3614,2.3603,0,0,0,0,0,2.3714,2.3713,2.3714,2.372,2.3722,2.376,2.3754,2.3762,2.3762,2.3796,2.3804,2.379,2.3826,2.3826,2.3796,2.3759,2.3839,2.3838,2.3716,2.3712,2.3708,2.362,0,0,0,0,0,0,2.3714,2.372,2.3715,2.3717,2.3742,2.3763,2.3768,2.3763,2.3791,2.3798,2.3798,2.3804,2.3824,2.3825,2.3825,2.3757,2.3841,2.384,2.3839,2.3713,2.3709,2.3706,0,0,0,0,0,0,2.3721,2.3721,2.3716,2.3741,2.3746,2.3765,2.3769,2.375,2.3791,2.3792,2.3798,2.3801,2.3824,2.3823,2.3823,2.3791,2.3842,2.3841,2.3841,2.384,2.371,2.3707,0,0,0,0,0,0,2.3722,2.3722,2.3741,2.3745,2.375,2.3773,2.3748,2.3753,2.3813,2.379,2.3819,2.3822,2.3821,2.3822,2.3822,2.3789,2.3791,2.3842,2.3842,2.3841,2.3841,0,0,0,0,0,0,0,2.3722,2.3712,2.3704,2.3748,2.3752,2.3734,2.3735,2.3735,2.3813,2.3816,2.3819,2.3821,2.3849,2.3847,2.3846,2.3788,0,0,2.3843,2.3842,0,0,0,0,0,0,0,0,2.3712,2.3712,2.3704,2.3705,2.3705,2.3734,2.3735,2.3735,2.3814,2.3816,2.3818,2.382,2.3848,2.3847,2.3846,0,0,0,0,0,0,0,0,0,0,0,0,0,0,0,2.3704,2.3705,0,2.3735,2.3735,2.3735,2.3814,2.3816,2.3818,2.3819,2.3848,2.3847,2.3846,0,0,0,0,0,0,0,0,0,0,0,0,0,0,0,0,0,0,0,0,0,0,0,0,0,0,0,0,0,0,0,0,0,0,0,0,0,0,0,0,0,0,0,0,0,0,0,0,0,0,0,0,0,0,0,0,0,0,0,0,0,0,0,0,0,0,0,0,0]}],[{"header":{"parameterUnit":"kt","parameterCategory":2,"dx":1,"dy":1,"la1":30.253999710083008,"la2":30.299108505249023,"lo1":-89.0895004272461,"lo2":-89.04439544677734,"nx":28,"ny":28,"refTime":"2022-10-19T21:00:00:Z","depth":0,"parameterNumber":2,"parameterNumberName":"V-component_of_WINDS"},"data":[-0.4608,-0.4685,-0.469,-0.4781,-0.4801,-0.4865,-0.489,-0.4923,-0.495,-0.5028,-0.5074,-0.5088,-0.5118,-0.5176,-0.5227,-0.5232,-0.5256,-0.5279,-0.5283,-0.5168,-0.5153,-0.5138,-0.5121,-0.5283,-0.5283,-0.5402,-0.5403,-0.5404,-0.4528,-0.4549,-0.4597,-0.4648,-0.469,-0.4671,-0.471,-0.4748,-0.4805,-0.4839,-0.4884,-0.4953,-0.5008,-0.5031,-0.5086,-0.5124,-0.512,-0.5139,-0.5139,-0.5145,-0.5021,-0.5003,-0.5142,-0.5142,-0.5142,-0.5142,-0.5142,-0.5142,-0.4384,-0.4429,-0.4463,-0.4515,-0.4542,-0.4576,-0.4621,-0.4636,-0.4684,-0.474,-0.4736,-0.4802,-0.4838,-0.4906,-0.493,-0.4983,-0.4962,-0.4986,-0.4993,-0.5,-0.5009,-0.4844,-0.4991,-0.4991,-0.4991,-0.499,-0.499,0,-0.4282,-0.4283,-0.4329,-0.4377,-0.4415,-0.4453,-0.4489,-0.4516,-0.452,-0.456,-0.4618,-0.4653,-0.4722,-0.4779,-0.483,-0.485,-0.4837,-0.4834,-0.4852,-0.4858,-0.4857,-0.4863,-0.4666,-0.4831,-0.483,-0.4829,-0.4828,-0.4827,-0.4141,-0.4191,-0.4227,-0.4259,-0.4279,-0.433,-0.4362,-0.4361,-0.4395,-0.444,-0.448,-0.4535,-0.458,-0.4673,-0.4691,-0.4743,-0.4738,-0.4801,-0.4745,-0.4748,-0.4745,-0.4743,-0.4751,-0.4813,-0.4815,-0.4816,-0.4818,0,-0.4063,-0.4069,-0.4148,-0.4178,-0.4188,-0.4241,-0.4268,-0.4313,-0.4322,-0.4385,-0.44,-0.4415,-0.4472,-0.448,-0.4546,-0.4549,-0.4643,-0.4633,-0.4632,-0.4632,-0.4693,-0.4689,-0.488,-0.4907,-0.4734,-0.4735,-0.4737,0,-0.3947,-0.4012,-0.4019,-0.4065,-0.4138,-0.4135,-0.4208,-0.4223,-0.4252,-0.4302,-0.4285,-0.4332,-0.4333,-0.4383,-0.4386,-0.4463,-0.4474,-0.4483,-0.4484,-0.4487,-0.4487,-0.4509,-0.4503,-0.4478,-0.4477,-0.4476,-0.4475,0,-0.3827,-0.3905,-0.3978,-0.3997,-0.4036,-0.407,-0.4088,-0.4119,-0.415,-0.4191,-0.4212,-0.426,-0.4287,-0.4325,-0.433,-0.4293,-0.4422,-0.4372,-0.4432,-0.4432,-0.4463,-0.4462,-0.4625,-0.4474,-0.4474,-0.4473,-0.4473,0,-0.3736,-0.3775,-0.3878,-0.3911,-0.3932,-0.3979,-0.4026,-0.4068,-0.4102,-0.4107,-0.4139,-0.413,-0.4194,-0.4144,-0.4234,-0.4185,-0.4214,-0.4226,-0.423,-0.424,-0.4186,-0.4283,-0.4433,-0.4452,-0.4245,-0.4243,-0.4242,0,-0.3599,-0.3704,-0.3702,-0.3799,-0.3849,-0.3828,-0.388,-0.391,-0.3921,-0.3966,-0.3978,-0.4029,-0.3993,-0.4011,-0.4053,-0.4069,-0.4133,-0.406,-0.4131,-0.4134,-0.4127,-0.4264,-0.4287,-0.4398,-0.4217,-0.422,-0.4222,0,-0.3494,-0.3538,-0.3556,-0.3578,-0.3615,-0.3656,-0.3715,-0.3764,-0.3795,-0.3828,-0.3881,-0.395,-0.3928,-0.3955,-0.3952,-0.3997,-0.409,-0.3966,-0.3967,-0.3993,-0.4204,-0.4226,-0.4244,-0.4078,-0.4081,-0.4083,-0.4202,0,-0.3364,-0.3415,-0.3461,-0.3508,-0.3539,-0.3599,-0.3605,-0.3638,-0.3632,-0.3642,-0.3716,-0.3741,-0.3792,-0.3813,-0.3806,-0.3904,-0.389,-0.3864,-0.382,-0.3908,-0.3948,-0.3964,-0.376,-0.3759,-0.3758,-0.3757,0,0,-0.3234,-0.3307,-0.3302,-0.3358,-0.3386,-0.3362,-0.3426,-0.3449,-0.3496,-0.3517,-0.3491,-0.3593,-0.3615,-0.3706,-0.3733,-0.3752,-0.3772,-0.374,-0.3865,-0.3877,-0.3888,-0.393,-0.3946,-0.3755,-0.3754,-0.3754,-0.3754,0,-0.3189,-0.3207,-0.3268,-0.3292,-0.3326,-0.3333,-0.3348,-0.3378,-0.3387,-0.3458,-0.344,-0.3485,-0.3564,-0.3592,-0.3616,-0.3728,-0.3713,-0.3742,-0.3802,-0.3853,-0.3867,-0.3879,-0.3923,-0.3938,-0.3751,-0.3751,-0.3751,0,-0.3089,-0.3111,-0.314,-0.3196,-0.3218,-0.3269,-0.3222,-0.3276,-0.3314,-0.3286,-0.3358,-0.3372,-0.3408,-0.349,-0.3527,-0.3506,-0.366,-0.361,-0.3617,-0.3623,-0.3673,-0.3689,-0.3703,-0.3515,-0.3514,-0.3514,0,0,-0.305,-0.3095,-0.3118,-0.3187,-0.3202,-0.3212,-0.3238,-0.3235,-0.3265,-0.3278,-0.3297,-0.3329,-0.3376,-0.3406,-0.345,-0.3539,-0.3549,-0.3581,-0.3592,-0.3601,-0.3611,-0.3664,-0.368,-0.3511,-0.351,-0.351,0,0,-0.3031,-0.3059,-0.3047,-0.3126,-0.3156,-0.3184,-0.3226,-0.3212,-0.3252,-0.3246,-0.3243,-0.3251,-0.3328,-0.3343,-0.33,-0.3436,-0.339,-0.3401,-0.3423,-0.3437,-0.3448,-0.3445,-0.3258,0,0,0,0,0,-0.2987,-0.3055,-0.3044,-0.3058,-0.3129,-0.319,-0.3199,-0.3197,-0.3167,-0.3201,-0.3215,-0.3195,-0.332,-0.3282,-0.3297,-0.3346,-0.347,-0.3477,-0.3484,-0.3533,-0.3548,-0.356,0,0,0,0,0,0,-0.2992,-0.301,-0.3042,-0.3072,-0.3088,-0.3187,-0.3135,-0.3136,-0.3163,-0.3158,-0.3193,-0.3196,-0.3196,-0.3274,-0.3287,-0.3334,-0.3254,-0.3472,-0.3479,-0.3484,-0.3538,-0.355,-0.3561,0,0,0,0,0,-0.2997,-0.301,-0.3124,-0.3071,-0.3085,-0.31,-0.3132,-0.3133,-0.3154,-0.3174,-0.3177,-0.315,-0.3198,-0.3209,-0.3282,-0.3328,-0.3244,-0.3249,-0.3476,-0.3481,-0.3486,-0.3544,0,0,0,0,0,0,-0.3,-0.3012,-0.3127,-0.3131,-0.3045,-0.3094,-0.3102,-0.313,-0.3168,-0.3171,-0.3131,-0.3127,-0.32,-0.3208,-0.3217,-0.3326,-0.3237,-0.3242,-0.3245,-0.348,-0.3484,-0.3487,0,0,0,0,0,0,-0.3005,-0.3016,-0.3129,-0.3096,-0.3096,-0.3089,-0.3096,-0.3157,-0.3169,-0.3123,-0.3121,-0.3129,-0.3187,-0.3208,-0.3214,-0.331,-0.3231,-0.3236,-0.3239,-0.3241,-0.3483,-0.3486,0,0,0,0,0,0,-0.301,-0.3019,-0.3094,-0.3095,-0.3095,-0.3143,-0.3143,-0.3216,-0.3139,-0.3122,-0.3132,-0.3129,-0.3187,-0.3194,-0.3213,-0.3305,-0.3309,-0.3231,-0.3234,-0.3237,-0.3238,0,0,0,0,0,0,0,-0.3014,-0.2949,-0.3102,-0.3094,-0.3094,-0.317,-0.3171,-0.3173,-0.3138,-0.3136,-0.3133,-0.313,-0.3203,-0.3208,-0.3214,-0.3302,0,0,-0.3231,-0.3233,0,0,0,0,0,0,0,0,-0.2945,-0.2948,-0.3102,-0.3103,-0.3103,-0.317,-0.3171,-0.3172,-0.3138,-0.3136,-0.3133,-0.3131,-0.3205,-0.3209,-0.3213,0,0,0,0,0,0,0,0,0,0,0,0,0,0,0,-0.3102,-0.3102,0,-0.3171,-0.3171,-0.3172,-0.3138,-0.3136,-0.3134,-0.3132,-0.3206,-0.3209,-0.3213,0,0,0,0,0,0,0,0,0,0,0,0,0,0,0,0,0,0,0,0,0,0,0,0,0,0,0,0,0,0,0,0,0,0,0,0,0,0,0,0,0,0,0,0,0,0,0,0,0,0,0,0,0,0,0,0,0,0,0,0,0,0,0,0,0,0,0,0,0]}]]]